FW8694 Weather Reports


Display with metric or nautical units.
time (UTC)temp
F
wind
direction
speed
MPH
gust
MPH
rain 1hr
in
rain 24hr
in
rain mn
in
humidity
%
barometer
mb
20260507001622 70 140 4.0 12.0 0.00 0.00 0.00 54 1016.0
20260507000428 70 223 3.0 10.0 0.00 0.00 0.00 54 1016.1
20260506234624 71 150 6.0 13.0 0.00 0.00 0.00 53 1016.2
20260506233124 72 161 6.0 12.0 0.00 0.00 0.00 52 1016.0
20260506231942 72 153 5.0 14.0 0.00 0.00 0.00 52 1016.3
20260506230459 73 123 5.0 12.0 0.00 0.00 0.00 53 1016.5
20260506224617 73 179 4.0 15.0 0.00 0.00 0.00 53 1016.6
20260506223243 73 217 3.0 12.0 0.00 0.00 0.00 53 1016.9
20260506221613 73 175 5.0 11.0 0.00 0.00 0.00 52 1017.2
20260506220108 73 113 5.0 12.0 0.00 0.00 0.00 52 1017.5
20260506214937 73 135 5.0 12.0 0.00 0.00 0.00 53 1017.6
20260506213029 73 108 6.0 13.0 0.00 0.00 0.00 53 1017.6
20260506211706 73 175 3.0 11.0 0.00 0.00 0.00 51 1017.9
20260506210047 73 171 3.0 10.0 0.00 0.00 0.00 52 1018.0
20260506204550 73 261 4.0 14.0 0.00 0.00 0.00 54 1018.1
20260506203228 72 142 2.0 9.0 0.00 0.00 0.00 54 1018.1
20260506201556 72 160 6.0 11.0 0.00 0.00 0.00 55 1018.3
20260506200059 72 9 3.0 11.0 0.00 0.00 0.00 56 1018.4
20260506194530 72 152 3.0 10.0 0.00 0.00 0.00 57 1018.3
20260506193027 72 123 2.0 10.0 0.00 0.00 0.00 57 1018.5
20260506191555 72 142 4.0 10.0 0.00 0.00 0.00 58 1018.4
20260506190110 72 236 3.0 11.0 0.00 0.00 0.00 58 1018.5
20260506184609 72 144 3.0 15.0 0.00 0.00 0.00 58 1018.3
20260506183103 72 184 3.0 11.0 0.00 0.00 0.00 59 1018.4
20260506181626 71 209 3.0 11.0 0.00 0.00 0.00 59 1018.8
20260506180101 70 154 4.0 10.0 0.00 0.00 0.00 58 1018.8
20260506174607 70 177 3.0 8.0 0.00 0.00 0.00 57 1018.9
20260506173114 69 220 2.0 10.0 0.00 0.00 0.00 59 1018.9
20260506171647 68 130 3.0 8.0 0.00 0.00 0.00 61 1018.8
20260506170052 67 197 2.0 7.0 0.00 0.00 0.00 63 1018.8
20260506164921 65 202 0.0 4.0 0.00 0.00 0.00 70 1018.9
20260506163047 62 253 0.0 4.0 0.00 0.00 0.00 78 1018.9
20260506161539 60 221 0.0 4.0 0.00 0.00 0.00 83 1018.9
20260506160054 58 360 0.0 4.0 0.00 0.00 0.00 87 1018.8
20260506154552 56 77 0.0 4.0 0.00 0.00 0.00 88 1018.7
20260506153108 55 9 1.0 6.0 0.00 0.00 0.00 89 1018.9
20260506151551 53 59 0.0 4.0 0.00 0.00 0.00 89 1018.8
20260506150057 52 31 1.0 8.0 0.00 0.00 0.00 89 1018.8
20260506144555 51 46 0.0 8.0 0.00 0.00 0.00 89 1018.7
20260506143044 50 5 0.0 4.0 0.00 0.00 0.00 89 1018.5
20260506141535 48 37 0.0 3.0 0.00 0.00 0.00 89 1018.5
20260506140050 46 303 0.0 0.0 0.00 0.00 0.00 89 1018.6
20260506134551 45 280 0.0 0.0 0.00 0.00 0.00 89 1018.6
20260506133047 45 309 0.0 0.0 0.00 0.00 0.00 89 1018.4
20260506131551 44 323 0.0 0.0 0.00 0.00 0.00 89 1018.5
20260506130050 45 333 0.0 0.0 0.00 0.00 0.00 89 1018.3
20260506124554 45 325 0.0 0.0 0.00 0.00 0.00 89 1018.2
20260506123051 45 338 0.0 0.0 0.00 0.00 0.00 88 1018.1
20260506121555 45 305 0.0 0.0 0.00 0.00 0.00 89 1017.9
20260506120049 45 306 0.0 0.0 0.00 0.00 0.00 89 1017.8
20260506114530 46 290 0.0 0.0 0.00 0.00 0.00 88 1017.7
20260506113050 46 309 0.0 0.0 0.00 0.00 0.00 88 1017.8
20260506111545 46 327 0.0 0.0 0.00 0.00 0.00 88 1017.8
20260506110048 47 17 0.0 0.0 0.00 0.00 0.00 88 1017.8
20260506104558 47 304 0.0 0.0 0.00 0.00 0.00 88 1017.8
20260506103056 47 306 0.0 0.0 0.00 0.00 0.00 88 1017.6
20260506101548 47 295 0.0 0.0 0.00 0.00 0.00 88 1017.5
20260506100106 47 292 0.0 1.0 0.00 0.00 0.00 88 1017.8
20260506094559 47 322 0.0 0.0 0.00 0.00 0.00 88 1017.7
20260506093056 47 5 0.0 0.0 0.00 0.00 0.00 87 1017.8
20260506091603 48 5 0.0 0.0 0.00 0.00 0.00 87 1017.9
20260506090104 48 298 0.0 0.0 0.00 0.00 0.00 87 1018.0
20260506084550 48 286 0.0 0.0 0.00 0.00 0.00 87 1018.1
20260506083056 48 315 0.0 0.0 0.00 0.00 0.00 87 1018.2
20260506081602 49 355 0.0 0.0 0.00 0.00 0.00 87 1018.3
20260506080120 49 284 0.0 2.0 0.00 0.00 0.00 86 1018.3
20260506073050 49 310 0.0 1.0 0.00 0.00 0.00 85 1018.2
20260506071605 49 310 0.0 0.0 0.00 0.00 0.00 85 1018.1
20260506061553 51 304 0.0 0.0 0.00 0.00 0.00 82 1017.4
20260506044543 54 288 0.0 0.0 0.00 0.00 0.00 77 1016.5
20260506043046 55 277 0.0 0.0 0.00 0.00 0.00 76 1016.3
20260506041550 56 323 0.0 0.0 0.00 0.00 0.00 75 1016.2
20260506040054 57 74 0.0 0.0 0.00 0.00 0.00 74 1016.0
20260506034603 58 119 0.0 0.0 0.00 0.00 0.00 73 1015.7
20260506033102 59 131 0.0 0.0 0.00 0.00 0.00 73 1015.3
20260506031552 60 127 0.0 0.0 0.00 0.00 0.00 73 1015.0
20260506030051 60 126 0.0 0.0 0.00 0.00 0.00 72 1015.0
20260506024613 61 127 0.0 0.0 0.00 0.00 0.00 72 1014.7
20260506023051 61 115 0.0 3.0 0.00 0.00 0.00 71 1014.6
20260506021558 62 128 0.0 5.0 0.00 0.00 0.00 71 1014.2
20260506020053 62 126 2.0 8.0 0.00 0.00 0.00 71 1014.4
20260506014553 63 101 1.0 9.0 0.00 0.00 0.00 71 1014.3
20260506013107 63 146 1.0 10.0 0.00 0.00 0.00 71 1014.4
20260506011544 63 130 5.0 12.0 0.00 0.00 0.00 70 1014.1
20260506010057 63 116 6.0 10.0 0.00 0.00 0.00 70 1014.0
20260506004603 62 125 4.0 11.0 0.00 0.00 0.00 69 1014.1
20260506003059 63 156 4.0 12.0 0.00 0.00 0.00 68 1014.2